This demonstration page uses our WeatherBlox Daily Observations layout. Learn more.

Left ArrowRight Arrow

36.19886, -115.1175

Hourly Observations for October 21, 2020

Temp ( °F °C ) Dew Point ( °F °C ) Humidity (%) Winds ( mph kmh ) Pressure ( in mb ) Visibility ( mi km ) Precip ( " mm )
1:53 am 01:53 Clear 68 20 27 -2.8 21 21 W 7 11 29.75 1008 10 16 0.00 0.00
2:53 am 02:53 Clear 67 19.4 27 -2.8 22 22 W 6 9 29.75 1007 10 16 0.00 0.00
4:53 am 04:53 Clear 64 17.8 27 -2.8 25 25 WNW 5 7 29.81 1010 10 16 0.00 0.00
5:53 am 05:53 Clear 63 17.2 28 -2.2 27 27 NW 5 7 29.83 1010 10 16 0.00 0.00
6:53 am 06:53 Clear 62 16.7 25 -3.9 24 24 NW 5 7 29.84 1011 10 16 0.00 0.00
7:53 am 07:53 Sunny 64 17.8 29 -1.7 27 27 NW 3 6 29.85 1011 10 16 0.00 0.00
8:53 am 08:53 Sunny 71 21.7 24 -4.4 17 17 Calm 29.87 1011 10 16 0.00 0.00
9:53 am 09:53 Sunny 74 23.3 24 -4.4 15 15 Calm 29.87 1012 10 16 0.00 0.00
10:53 am 10:53 Sunny 78 25.6 23 -5 13 13 Calm 29.86 1011 10 16 0.00 0.00
11:53 am 11:53 Sunny 82 27.8 23 -5 11 11 Calm 29.83 1010 10 16 0.00 0.00
12:53 pm 12:53 Sunny 83 28.3 21 -6.1 10 10 VRB 5 7 29.81 1009 10 16 0.00 0.00
1:53 pm 13:53 Sunny 86 30 21 -6.1 9 9 Calm 29.77 1008 10 16 0.00 0.00
2:53 pm 14:53 Sunny 87 30.6 23 -5 9 9 ESE 6 9 29.75 1007 10 16 0.00 0.00
3:53 pm 15:53 Sunny 88 31.1 24 -4.4 10 10 Calm 29.73 1007 10 16 0.00 0.00
4:53 pm 16:53 Sunny 88 31.1 24 -4.4 10 10 Calm 29.72 1007 10 16 0.00 0.00
5:53 pm 17:53 Sunny 85 29.4 25 -3.9 11 11 NNW 3 6 29.72 1007 10 16 0.00 0.00
6:53 pm 18:53 Clear 80 26.7 28 -2.2 15 15 WNW 5 7 29.73 1007 10 16 0.00 0.00
7:53 pm 19:53 Clear 77 25 32 0 19 19 W 6 9 29.74 1007 10 16 0.00 0.00
8:53 pm 20:53 Clear 71 21.7 30 -1.1 22 22 NW 5 7 29.74 1007 10 16 0.00 0.00
9:53 pm 21:53 Clear 72 22.2 29 -1.7 20 20 NNW 7 11 29.74 1007 10 16 0.00 0.00
10:53 pm 22:53 Clear 68 20 28 -2.2 22 22 WNW 3 6 29.75 1007 10 16 0.00 0.00
11:53 pm 23:53 Clear 66 18.9 30 -1.1 26 26 W 5 7 29.74 1007 10 16 0.00 0.00

Powered by AerisWeather